Location: Indian Hills
(32.9760°N, 85.9450°W)
Time: 21:30:16
(UTC+00:00)

FALCON 9 R/B - Pass Details

Date: 09 December 2019
Orbit: 286 x 10161 km, 34.5° (Epoch: 22 January)

Event Time Altitude Azimuth Distance (km) Brightness Sun altitude
Exits shadow 08:56:55 36° 87° (E) 1,887 4.2 -44.9°
Drops below altitude 10° 09:05:03 10° 76° (ENE) 5,173 6.8 -43.2°
Sets 09:12:27 0° 75° (ENE) 7,837 7.9 -41.6°
